Погода в Аккистау

Казахстан     47°13′20″N   51°00′21″E
темп.,
°C
ветер,
м/с
пор.,
м/с
влажн.,
%
обл.,
%
осадки,
мм/ч
давл.,
гПа
погр.,
м
15 мая, сб
сб1523:00+26вюв510142 0.0 1020139
02:00+24юв511210 0.0 1019159
05:00+22юв58255 0.0 1019104
08:00+24вюв47215 0.0 1020168
11:00+28юв88283 0.0 1020792
14:00+30ююв911190 0.0 10201663
17:00+32ююв810150 0.0 10192195
20:00+31юв68150 0.0 1018472
16 мая, вс
вс1623:00+27вюв510200 0.0 1018162
02:00+25юв512260 0.0 1018191
05:00+22юв511480 0.0 1018199
08:00+24юв510440 0.0 1019289
11:00+29юв911190 0.0 1019904
14:00+30юв1012120 0.0 10191595
17:00+31юв1011110 0.0 10172144
20:00+30юв710120 0.0 1016686
17 мая, пн
пн1723:00+26вюв510160 0.0 1016146
02:00+24вюв716250 0.0 1016361
05:00+22юв614330 0.0 1016275
08:00+23вюв712290 0.0 1017398
11:00+29юв910160 0.0 1017938
14:00+32ююв911120 0.0 10172201
17:00+33юв911100 0.0 10152662
20:00+32юв69113 0.0 1014423
18 мая, вт
вт1823:00+27вюв5111535 0.0 1014166
02:00+25вюв6162058 0.0 1014302
05:00+23юв513325 0.0 1014235
08:00+25вюв511285 0.0 1014266
11:00+31юв1013145 0.0 10142109
14:00+33юв9981 0.0 10131767
17:00+33ююв771041 0.0 10122408
20:00+32вюв5780 0.0 1011297
19 мая, ср
ср1923:00+28в46115 0.0 101166
02:00+26в57135 0.0 101089
05:00+24в5121742 0.0 1010165
08:00+26вюв51028100 0.0 1011255
11:00+30юв5724100 0.0 1011550
14:00+33ююв4517100 0.0 1011897
17:00+33ю7615100 0.0 10111048
20:00+30ююз332394 0.0 1011317